GOES 1 (SMS-C) 1 08366U 75100A 22176.45261047 -.00000209 00000-0 00000-0 0 9995 2 08366 8.2584 295.6478 0001722 208.4444 209.9784 1.00288837170500 GOES 2 1 10061U 77048A 22175.97530247 .00000088 00000-0 00000-0 0 9994 2 10061 9.8338 307.0232 0011078 31.8730 324.7555 0.99396360 31827 GOES 3 1 10953U 78062A 22176.50743802 .00000011 00000-0 00000-0 0 9990 2 10953 10.1586 311.5044 0003761 138.8968 263.4290 0.99358192114108 GOES 4 1 11964U 80074A 22176.24701317 -.00000251 00000-0 00000-0 0 9992 2 11964 11.1171 315.3248 0033727 76.1737 293.7164 0.99232472113021 GOES 5 1 12472U 81049A 22176.45281267 -.00000236 00000-0 00000-0 0 9993 2 12472 11.9443 326.6581 0002454 133.9125 252.9113 1.00326763108280 GOES 6 1 14050U 83041A 22176.45281341 -.00000241 00000-0 00000-0 0 9990 2 14050 12.4970 331.9516 0005384 132.9835 249.6887 1.00306883201459 GOES 7 1 17561U 87022A 22176.58831406 .00000043 00000-0 00000-0 0 9999 2 17561 14.2348 348.4873 0006826 70.0454 302.4693 0.99892898112455 GOES 8 1 23051U 94022A 22176.39066545 -.00000246 00000-0 00000-0 0 9997 2 23051 13.1831 24.1412 0008283 41.6076 311.6030 0.98906859109759 GOES 9 1 23581U 95025A 22176.72927865 .00000006 00000-0 00000-0 0 9990 2 23581 12.6762 24.4570 0009028 87.5421 288.3060 0.98799180 98413 GOES 10 1 24786U 97019A 22175.59097976 -.00000059 00000-0 00000-0 0 9997 2 24786 11.4276 30.6253 0024955 197.9538 167.9042 0.99122224 91668 GOES 11 1 26352U 00022A 22176.49590806 -.00000267 00000-0 00000-0 0 9997 2 26352 8.7003 59.2662 0002168 37.8934 126.1134 0.99044254 38083 GOES 12 1 26871U 01031A 22176.76586753 .00000059 00000-0 00000-0 0 9998 2 26871 9.5319 48.1357 0007861 343.0751 204.1862 0.99135854 76365 GOES 13 1 29155U 06018A 22176.88243795 .00000046 00000-0 00000-0 0 9991 2 29155 0.6229 96.9389 0003515 88.0068 107.9438 1.00270348 28817 GOES 14 1 35491U 09033A 22176.59241333 -.00000084 00000-0 00000-0 0 9998 2 35491 0.3398 95.4280 0012579 116.2846 170.5779 1.00270628 47549 GOES 15 1 36411U 10008A 22176.63938100 .00000063 00000-0 00000-0 0 9991 2 36411 0.3117 102.1707 0001966 13.1620 260.1152 1.00270498 45100 GOES 16 1 41866U 16071A 22176.85743726 -.00000241 00000-0 00000-0 0 9998 2 41866 0.0621 243.0079 0000560 266.9557 357.4721 1.00271373 20557